Terminal Aerodrome Forecast
Issued by NWS Boston, MA

Home | Current Version | Previous Version | Text Only | Print | Product List | Glossary On
Versions: 1 2 3 4 5 6 7 8 9 10 11 12 13 14 15 16 17 18 19 20 21 22 23 24 25 26 27 28 29 30 31 32 33 34 35 36 37 38 39 40 41 42 43 44
000
FTUS41 KBOX 230301 AAA
TAFPVD
TAF AMD
KPVD 230301Z 2303/2324 22008KT P6SM SCT250
     FM230800 22006KT P6SM SCT250
     FM231400 21012KT P6SM SCT250
     FM231800 20014G20KT P6SM SCT040 BKN250=

USA.gov is the U.S. government's official web portal to all federal, state and local government web resources and services.